Temperature
15 16 16 16 19 20 21 21 21 20 20 18 18 19 20 20 20 19 14 14 14 14 14 14 14 13 13 13 13 13 13 13 13 13 13 14 14 13 13 13 13 13 13 13 13 13 13 13 13
15 15 16 17 20 21 21 21 20 20 18 16 16 17 18 18 15 14 14 14 14 13 13 13 13 13 13 13 13 13 13 13 13 13 13 13 13 13 13 13 13 13 13 13 13 13 13 13 13
15 15 16 19 19 21 21 20 20 18 16 16 17 16 17 16 14 13 13 14 13 13 13 13 13 13 13 13 13 13 13 13 13 13 13 13 13 13 13 13 13 13 13 13 13 13 13 13 13
15 15 17 19 19 20 19 19 18 18 17 16 17 17 15 13 13 13 14 14 13 13 13 13 13 13 13 13 13 13 13 13 12 13 13 13 13 13 13 13 13 13 13 13 13 13 13 13 13
14 17 18 18 19 19 18 17 17 18 18 16 16 17 15 13 13 13 13 13 13 13 12 13 13 12 12 12 12 12 12 12 12 12 12 12 12 12 13 13 13 13 13 13 13 13 13 13 13
15 17 18 19 19 18 18 16 16 17 17 16 16 17 15 13 13 13 13 13 12 12 12 12 12 12 12 12 12 12 12 12 12 12 12 12 12 12 12 12 12 12 13 13 13 13 13 13 13
16 17 18 18 18 18 17 15 16 17 17 16 15 17 15 12 12 13 12 12 12 12 12 12 12 12 12 12 12 12 12 12 12 12 12 12 12 12 12 12 12 12 12 12 12 12 13 13 12
14 17 17 17 17 17 16 14 14 15 16 14 14 16 15 12 12 12 12 12 12 12 12 12 12 12 12 11 11 12 12 12 12 12 12 12 12 12 12 12 12 12 12 12 12 12 12 12 12
13 16 17 17 17 17 15 15 14 13 14 13 12 13 12 12 12 12 12 11 11 11 11 11 11 11 11 11 11 11 11 11 11 11 11 11 11 11 11 11 11 11 12 12 12 12 12 12 12
14 16 16 16 16 16 14 14 14 14 14 14 12 12 12 12 12 11 11 11 11 11 11 11 11 11 11 11 11 11 11 11 11 11 11 11 11 11 11 11 11 11 11 11 12 12 11 11 11
14 15 14 14 13 13 13 13 12 14 15 14 13 12 12 11 11 11 11 11 11 11 11 11 11 11 11 11 11 11 11 11 11 11 11 11 10 10 10 10 10 11 11 11 11 11 11 11 11
13 13 13 13 11 12 13 12 12 13 13 12 11 11 11 11 11 11 10 10 10 10 10 10 10 10 10 10 10 10 10 10 10 10 10 10 10 10 10 10 10 10 10 10 10 10 10 10 10
13 12 11 11 11 11 11 11 12 12 11 11 10 10 11 11 10 10 10 10 10 10 10 10 10 10 10 10 10 10 10 10 10 10 10 10 10 10 10 9 10 10 10 10 10 10 10 10 10
12 11 11 11 11 11 11 11 11 11 10 10 10 10 10 10 10 10 10 10 10 10 10 10 10 10 10 10 10 10 10 10 9 9 9 9 9 9 9 9 9 9 9 9 9 9 9 9 9
10 11 12 12 11 11 11 12 12 11 10 10 10 9 9 9 9 9 10 10 10 10 10 10 10 10 9 9 9 9 9 9 9 9 9 9 9 9 9 9 9 9 9 9 9 9 9 9 9
12 12 13 12 11 10 12 13 13 10 10 10 10 9 9 9 9 9 9 9 10 10 10 10 9 9 9 9 9 9 9 9 9 9 8 8 8 8 8 8 8 8 8 8 8 8 8 8 8
12 13 13 12 11 11 12 13 12 10 10 10 10 9 9 9 9 9 9 9 9 9 9 9 9 9 9 9 9 8 8 8 8 8 8 8 8 8 8 8 8 8 8 8 8 8 8 8 8
12 13 12 12 11 10 11 12 12 10 10 10 10 9 9 8 9 9 9 9 9 9 9 9 9 9 8 8 8 8 8 8 8 8 8 8 8 8 7 7 7 7 7 7 7 7 7 7 7
12 12 12 12 10 10 11 11 12 11 10 10 10 9 9 9 8 8 8 9 9 9 9 9 8 8 8 8 8 8 8 8 7 7 7 7 7 7 7 7 7 7 7 7 7 7 7 7 7
11 11 11 11 9 10 10 10 11 11 10 10 10 9 9 8 8 8 8 8 8 8 8 8 8 8 8 8 8 7 7 7 7 7 7 7 7 7 7 7 7 6 6 6 6 6 6 6 6
10 10 11 10 9 9 9 11 12 11 10 9 8 8 8 8 7 7 7 7 8 8 8 8 8 8 8 7 7 7 7 7 7 7 7 7 6 6 6 6 6 6 6 6 6 6 5 5 6
10 10 9 9 9 10 10 11 13 12 10 10 9 8 8 7 7 7 7 7 7 7 7 7 7 7 7 7 7 7 6 6 6 6 6 6 6 6 6 6 6 5 5 5 5 5 5 5 5
9 8 8 8 9 9 9 9 12 11 11 11 10 9 8 7 7 7 7 7 7 7 7 7 7 7 7 6 6 6 6 6 6 6 6 5 5 5 5 5 5 5 5 5 5 5 4 4 4
7 8 8 8 8 9 10 10 12 12 11 11 10 9 8 7 6 6 6 6 6 6 6 6 6 6 6 6 6 6 6 5 5 5 5 5 5 5 5 5 5 5 4 4 4 4 4 4 4
8 8 9 9 9 10 9 9 11 12 10 10 10 9 7 7 6 6 6 6 6 6 6 6 6 6 6 6 5 5 5 5 5 5 4 5 4 4 4 4 4 4 4 4 4 4 4 3 3
8 9 9 10 11 11 8 9 12 10 9 8 8 7 7 6 6 6 6 6 6 6 5 6 5 5 5 5 5 5 5 5 4 4 4 4 4 4 4 4 4 4 4 4 3 3 3 3 3
7 8 8 8 7 8 10 10 10 9 9 8 8 7 7 6 6 5 5 5 5 5 5 5 5 5 5 5 5 5 4 4 4 4 4 4 4 4 4 3 3 3 3 3 3 3 3 3 3
7 7 7 7 8 10 11 10 11 10 9 9 8 7 7 6 5 5 5 5 5 5 4 5 5 5 5 4 4 4 4 4 4 4 4 3 3 3 3 3 3 3 3 3 3 3 3 2 2
6 6 7 7 8 9 10 12 10 10 9 8 8 7 6 6 5 5 5 5 4 4 4 4 4 4 4 4 4 4 4 4 4 3 3 3 3 3 3 3 3 3 2 2 2 2 2 2 2
6 7 7 7 7 7 9 10 9 8 8 7 7 6 5 5 5 5 5 5 4 4 4 4 4 4 4 4 4 4 4 4 3 3 3 3 3 2 2 2 2 2 2 2 2 2 2 2 2
Wind_Speed
2 1 2 3 4 5 8 5 4 3 2 1 0 1 2 1 1 1 3 3 4 7 9 11 10 10 9 9 8 8 8 8 7 7 7 7 7 7 7 7 7 8 8 8 8 8 8 8 8
1 2 3 3 6 9 7 6 5 3 1 1 2 2 2 1 2 3 3 3 6 8 8 9 9 9 9 9 9 8 7 7 7 7 7 7 7 6 6 6 6 7 7 7 7 8 7 8 7
2 2 3 4 6 9 6 4 3 1 1 2 2 1 0 1 2 2 2 5 7 8 8 9 9 9 9 9 8 8 7 7 7 7 7 7 6 6 6 5 6 6 7 6 6 7 7 6 6
3 3 3 6 10 7 4 2 2 2 3 2 2 2 2 2 1 1 4 6 7 8 8 9 8 9 8 8 8 7 7 7 7 6 6 6 6 6 5 5 5 6 6 6 5 5 5 5 5
2 4 6 8 10 5 3 2 3 4 3 3 3 2 2 2 2 3 5 7 7 7 7 9 8 8 8 7 6 7 7 6 6 5 5 5 5 5 5 5 5 5 5 5 4 4 4 4 4
4 4 7 11 10 5 4 3 4 4 3 2 3 3 2 3 3 4 5 6 7 7 7 8 7 7 7 7 6 6 6 5 5 5 5 4 4 3 3 4 4 4 4 3 4 3 3 3 3
4 5 8 9 8 6 4 3 4 4 5 3 2 3 3 3 3 4 5 6 6 6 6 6 6 7 7 7 7 6 5 5 5 4 4 4 3 3 3 3 3 3 3 3 3 3 3 3 2
3 4 6 7 8 6 3 3 1 3 2 1 2 3 2 2 3 5 5 5 5 5 5 5 5 5 6 6 7 6 5 5 4 4 4 3 3 3 2 2 3 2 2 3 3 3 2 2 2
3 6 8 7 6 4 3 3 2 1 2 2 1 0 2 3 5 6 5 5 5 4 4 4 4 4 4 4 5 5 5 5 4 3 3 2 1 1 1 1 2 2 1 2 2 2 2 2 2
4 7 8 4 3 3 3 3 2 3 4 4 3 1 2 4 6 7 6 6 6 6 5 4 4 4 4 3 3 4 4 3 3 2 2 2 1 1 0 2 2 1 1 1 1 1 1 1 0
4 6 4 4 3 2 3 3 3 4 5 5 4 3 2 4 6 7 7 7 6 5 5 4 3 4 4 3 3 2 3 3 2 2 2 2 1 1 1 0 1 1 1 1 1 1 0 1 1
5 4 4 3 2 3 4 3 4 6 5 3 4 3 4 5 7 7 7 7 6 5 4 4 4 3 4 3 3 3 2 2 2 2 2 2 1 1 1 0 1 1 1 1 1 1 1 1 1
6 4 3 2 2 3 4 5 5 7 6 4 2 4 5 5 6 6 6 6 5 5 4 4 4 4 3 3 3 3 3 2 2 2 3 2 2 2 1 1 1 1 1 1 1 1 1 2 2
4 4 3 3 3 3 4 6 5 7 4 3 4 4 5 5 5 5 5 6 5 6 5 5 4 4 4 4 3 3 3 2 2 2 2 3 2 2 2 2 1 1 2 2 2 2 2 2 2
4 3 3 4 4 3 3 6 7 6 4 5 5 5 5 5 5 6 6 7 7 6 6 5 5 5 5 5 4 3 3 3 3 2 3 3 3 3 2 2 2 2 2 2 2 2 2 2 2
4 4 5 4 3 3 5 9 5 3 5 7 6 6 6 6 6 6 6 6 6 6 6 5 4 5 5 5 4 3 3 3 3 3 3 3 3 3 3 2 2 2 2 2 2 2 2 2 2
5 6 7 5 3 3 6 9 5 4 7 8 8 7 7 7 7 6 6 5 6 6 6 5 5 5 5 5 4 4 3 3 3 3 3 3 3 4 3 3 2 3 2 2 2 2 3 3 3
7 8 8 7 3 5 8 11 9 7 9 10 9 8 8 8 7 6 5 5 5 5 6 6 5 5 4 4 3 3 3 3 3 3 3 4 3 4 3 3 3 3 2 2 2 2 2 3 3
6 8 9 7 4 6 10 12 12 10 10 10 9 8 8 8 6 5 5 4 5 5 5 6 5 5 4 4 3 3 3 3 3 3 4 4 4 4 3 3 3 3 3 3 3 3 3 3 2
8 9 9 6 3 5 9 13 13 11 10 10 9 9 8 7 5 5 4 4 5 5 6 6 6 6 5 4 4 3 3 3 3 3 3 4 4 4 4 4 3 3 3 4 4 3 3 3 3
9 10 9 6 4 4 6 10 9 7 7 7 7 7 7 7 6 5 5 5 4 5 5 6 6 6 6 5 3 2 2 2 2 3 3 4 4 4 4 5 4 4 4 4 4 4 5 4 3
8 6 6 5 5 4 4 7 7 7 6 7 7 7 6 5 5 4 4 4 5 5 5 6 6 6 6 6 5 6 4 4 4 3 3 3 4 4 4 5 5 4 4 4 5 5 5 5 4
4 2 3 4 6 6 6 7 7 5 7 7 6 6 5 5 4 4 4 4 4 4 4 5 6 6 6 6 7 7 5 5 3 3 4 4 3 4 4 4 4 4 4 5 4 4 5 4 5
5 3 2 2 4 7 8 8 7 5 7 5 4 3 4 4 4 3 3 3 3 3 4 4 5 6 6 6 7 7 7 5 5 5 4 4 3 3 4 4 4 4 4 5 5 4 5 4 5
5 4 3 4 5 6 3 7 8 4 3 4 3 3 2 3 3 4 4 4 3 3 4 5 6 6 6 6 7 7 7 6 7 6 5 5 4 4 5 5 5 5 5 5 5 5 5 5 6
8 6 5 4 5 3 4 8 5 1 2 3 3 3 3 3 3 4 4 4 4 4 4 5 6 6 6 6 6 6 7 5 5 6 5 5 5 5 5 5 5 5 5 5 5 5 5 5 6
6 6 3 2 2 5 6 6 7 4 4 4 3 3 3 3 3 4 4 4 4 4 4 5 6 6 6 6 6 6 6 6 6 6 6 5 5 4 5 6 6 6 6 6 6 5 6 5 5
3 4 4 5 4 6 6 7 5 5 5 4 4 4 3 3 4 4 4 4 4 3 4 4 6 6 6 6 6 5 6 7 6 6 6 6 6 5 6 6 6 6 6 6 6 6 5 6 6
6 6 5 4 4 5 6 5 2 4 4 4 4 4 4 4 4 4 4 3 3 3 3 4 4 5 5 6 6 6 6 6 6 6 7 6 6 6 6 6 6 6 6 6 6 6 6 7 6
7 8 8 6 6 5 6 6 1 2 2 3 4 4 4 4 4 4 3 3 3 3 3 3 4 5 5 5 5 6 5 5 6 6 6 6 6 6 6 6 7 7 7 7 7 7 7 7 7
Wind_Direction
308 252 208 204 211 223 233 225 222 193 195 139 98 219 217 223 288 62 80 130 133 144 145 145 145 145 145 141 137 130 122 115 109 102 99 94 88 83 83 79 76 76 76 75 76 80 82 81 77
256 197 198 205 226 225 225 217 213 213 134 136 168 199 187 135 32 71 111 135 145 142 141 143 141 146 146 145 139 135 129 122 113 103 98 97 91 84 82 79 76 74 75 73 74 75 82 81 79
185 230 205 201 222 231 218 190 202 167 163 196 175 193 273 67 97 103 104 145 148 142 141 137 141 144 145 149 144 138 132 125 116 105 98 97 92 86 81 81 78 79 79 76 76 73 77 81 81
195 185 200 221 222 227 226 179 178 170 166 196 203 157 120 51 42 77 125 147 147 143 143 137 139 142 141 143 145 140 132 123 117 108 101 96 94 88 80 78 78 81 81 78 77 76 74 81 81
208 200 206 223 230 221 220 248 225 217 193 181 204 196 145 84 55 108 137 148 148 144 143 141 138 143 143 139 135 133 129 124 119 113 107 99 93 91 84 79 81 81 79 78 78 78 73 77 79
188 207 218 224 222 213 222 219 212 225 210 193 200 198 150 95 98 120 136 146 146 143 139 139 139 140 142 142 134 128 123 120 117 112 110 104 97 92 92 84 85 86 77 75 80 81 70 69 78
210 210 226 225 220 217 213 197 213 220 213 209 213 194 152 119 103 132 141 143 141 140 139 134 137 142 138 135 132 127 124 121 111 103 100 97 97 93 86 83 85 84 80 76 73 70 62 59 72
229 214 220 220 221 222 184 177 209 231 219 162 215 212 164 126 129 140 143 145 144 146 151 146 141 143 150 151 139 134 129 124 114 99 90 89 96 102 93 93 98 90 80 79 73 65 53 44 64
213 220 225 218 216 207 170 183 175 211 181 179 187 323 30 127 148 149 151 157 161 165 168 164 158 149 152 153 147 147 138 130 129 118 105 115 134 131 127 93 100 102 91 88 82 74 57 31 83
205 222 228 222 219 200 183 206 203 193 203 207 198 188 107 153 170 176 180 184 186 188 186 184 182 171 162 155 158 165 160 155 158 155 151 164 159 142 126 103 110 123 120 126 113 100 86 284 185
208 226 217 213 212 215 214 231 222 217 233 231 231 226 184 180 189 196 198 198 200 198 192 189 190 185 178 176 169 168 166 165 172 171 170 178 169 170 173 153 130 156 200 207 171 197 243 281 269
210 226 229 223 207 219 227 224 227 233 249 291 266 218 195 197 203 207 208 206 201 201 200 193 189 190 192 195 187 181 180 185 188 187 194 194 183 193 196 234 257 260 265 275 266 267 262 265 260
213 221 218 226 220 232 231 235 246 248 261 269 228 197 205 211 217 214 212 209 203 201 202 197 193 194 193 197 201 194 195 193 193 196 197 202 198 205 210 223 232 258 274 270 272 261 261 259 257
195 198 222 239 234 226 228 248 237 247 238 221 212 210 214 216 220 220 215 211 210 209 207 201 199 200 197 200 203 198 197 192 200 198 206 205 205 210 212 221 230 247 257 262 265 264 260 254 251
159 191 232 228 223 210 224 245 228 238 221 226 229 230 229 231 230 232 228 219 215 214 212 205 203 202 202 204 205 199 197 196 201 205 210 215 214 215 221 224 228 240 244 245 258 263 264 261 253
189 214 229 206 203 203 227 248 224 216 222 240 244 242 242 240 239 238 234 229 221 215 211 206 202 204 206 205 205 201 199 197 199 208 210 218 225 223 221 225 227 231 231 233 236 248 253 254 257
207 225 229 222 203 209 229 254 249 238 239 247 250 248 245 245 243 240 232 228 223 213 209 204 200 206 209 207 203 203 200 199 201 208 215 219 224 227 222 223 225 219 221 228 235 241 250 253 259
218 226 232 236 217 231 245 257 263 256 248 250 252 250 245 244 243 240 233 227 224 214 208 205 199 205 204 199 201 203 207 210 210 211 218 221 222 227 226 219 223 220 217 223 232 240 253 259 259
228 235 246 258 271 256 253 263 266 262 253 251 249 248 247 245 245 238 229 219 216 213 207 203 198 197 194 194 197 206 216 218 218 218 219 223 225 223 221 223 216 218 221 226 230 237 242 253 254
227 237 253 268 269 262 271 273 267 256 250 249 249 249 249 246 238 231 222 213 214 214 211 206 202 198 198 205 206 214 220 225 225 224 223 225 225 222 220 222 220 219 223 224 222 227 235 240 243
228 235 244 255 286 261 284 275 245 239 238 247 248 250 250 239 231 224 218 215 215 218 217 210 206 201 202 204 199 187 196 219 227 231 229 226 226 223 223 221 222 222 224 227 225 224 228 234 237
237 232 231 233 248 261 256 278 257 237 244 245 243 240 243 240 234 226 222 220 220 225 222 215 207 201 198 196 200 200 211 223 233 232 232 232 225 223 223 223 221 222 225 230 233 233 235 234 233
219 167 202 226 242 263 238 250 264 228 247 246 239 233 238 240 238 233 230 229 227 224 219 216 206 203 197 198 206 210 218 227 231 228 225 227 224 222 222 223 225 226 228 231 233 237 237 237 238
146 139 144 197 226 248 232 229 264 228 237 242 224 218 233 237 235 233 230 228 225 220 214 217 207 203 201 202 208 216 219 221 223 227 228 227 229 229 226 225 229 231 232 231 229 231 234 236 239
180 184 211 213 220 240 183 230 253 245 233 239 232 226 248 239 232 225 226 227 225 220 217 217 212 206 204 206 210 220 224 225 226 229 229 230 230 233 230 228 231 234 234 233 231 227 229 231 234
194 206 220 235 242 248 210 239 249 252 242 244 243 243 262 248 239 234 230 228 231 230 226 219 216 212 206 208 214 220 222 225 230 231 231 231 232 235 235 231 233 235 235 233 230 230 230 230 230
182 208 234 243 268 265 244 253 274 228 230 233 243 249 258 257 248 246 242 237 237 234 232 225 220 217 213 213 216 218 219 225 229 230 231 234 234 235 233 233 234 237 235 234 232 230 230 231 230
223 172 179 204 231 250 250 247 244 217 220 226 240 249 260 267 262 256 250 244 242 239 239 231 223 221 217 215 217 222 220 223 227 229 231 233 234 231 230 232 234 235 234 232 231 232 232 231 230
180 191 205 210 241 247 258 253 214 220 223 228 244 253 255 257 260 255 247 246 246 245 241 237 231 227 224 219 220 222 221 221 223 227 232 233 234 231 229 229 230 231 232 230 229 230 230 231 233
222 214 200 213 222 231 257 264 117 226 245 253 262 262 261 260 263 257 245 242 242 246 251 248 244 236 232 227 224 225 226 224 224 227 230 231 231 232 232 230 230 231 232 230 228 228 230 232 233
Height
1506 1507 1509 1512 1511 1507 1502 1500 1500 1503 1504 1507 1508 1507 1505 1506 1507 1513 1514 1511 1512 1514 1516 1517 1519 1520 1521 1522 1523 1524 1524 1525 1525 1526 1526 1526 1526 1526 1526 1526 1526 1527 1527 1527 1527 1527 1527 1526 1526
1506 1507 1511 1512 1506 1504 1501 1499 1502 1503 1506 1508 1509 1508 1508 1509 1511 1512 1511 1511 1512 1514 1516 1517 1518 1520 1521 1522 1523 1524 1524 1525 1525 1526 1526 1526 1526 1526 1526 1526 1526 1526 1526 1526 1526 1526 1526 1526 1526
1505 1507 1511 1507 1503 1498 1498 1501 1502 1506 1508 1508 1509 1509 1509 1511 1511 1511 1511 1511 1513 1514 1516 1517 1518 1520 1521 1522 1523 1524 1524 1525 1525 1526 1526 1526 1526 1526 1526 1526 1526 1526 1526 1526 1526 1526 1526 1526 1525
1506 1509 1510 1505 1500 1499 1499 1502 1505 1506 1507 1509 1509 1509 1511 1511 1511 1511 1510 1512 1513 1515 1516 1517 1518 1520 1521 1522 1523 1523 1524 1524 1525 1525 1525 1526 1526 1525 1525 1525 1525 1525 1525 1525 1525 1525 1525 1525 1525
1506 1507 1504 1502 1499 1500 1502 1505 1506 1505 1506 1508 1509 1508 1510 1511 1510 1510 1511 1512 1513 1515 1516 1517 1518 1519 1521 1521 1522 1523 1524 1524 1524 1524 1525 1525 1525 1525 1525 1525 1525 1525 1525 1525 1525 1524 1524 1524 1524
1506 1504 1500 1497 1497 1500 1503 1505 1506 1505 1506 1508 1508 1508 1510 1510 1510 1510 1511 1512 1513 1515 1516 1517 1518 1519 1520 1521 1522 1522 1523 1523 1523 1524 1524 1524 1524 1524 1524 1524 1524 1524 1524 1524 1524 1523 1523 1523 1523
1505 1501 1496 1495 1497 1499 1503 1505 1505 1504 1505 1507 1508 1508 1509 1510 1509 1510 1511 1512 1513 1514 1515 1517 1518 1519 1520 1520 1521 1522 1522 1522 1523 1523 1523 1523 1523 1523 1523 1523 1523 1523 1523 1523 1522 1522 1522 1522 1522
1503 1501 1498 1497 1497 1498 1503 1505 1506 1506 1505 1507 1508 1507 1508 1510 1509 1510 1511 1512 1513 1513 1515 1516 1517 1518 1519 1519 1520 1520 1521 1521 1522 1522 1522 1522 1522 1522 1521 1522 1522 1521 1521 1521 1521 1521 1521 1521 1520
1502 1501 1496 1496 1497 1499 1503 1504 1506 1506 1506 1506 1507 1507 1508 1508 1508 1509 1510 1511 1511 1512 1513 1514 1515 1516 1517 1518 1519 1519 1520 1520 1520 1520 1520 1520 1520 1520 1520 1520 1520 1520 1520 1520 1520 1519 1519 1519 1519
1502 1497 1495 1498 1499 1500 1503 1503 1504 1505 1504 1505 1506 1506 1506 1506 1507 1508 1508 1509 1510 1511 1511 1512 1513 1514 1515 1516 1517 1517 1518 1518 1519 1519 1519 1519 1519 1518 1518 1518 1518 1518 1518 1518 1518 1518 1518 1518 1517
1500 1497 1498 1500 1501 1502 1502 1503 1504 1503 1502 1503 1503 1503 1504 1505 1505 1506 1507 1508 1508 1509 1509 1510 1511 1512 1513 1514 1514 1515 1516 1516 1517 1517 1517 1517 1517 1517 1517 1516 1516 1516 1516 1516 1516 1516 1516 1516 1515
1500 1500 1500 1501 1502 1502 1502 1502 1503 1502 1501 1502 1502 1502 1502 1502 1503 1503 1504 1505 1506 1507 1507 1508 1509 1510 1511 1511 1512 1513 1513 1514 1514 1514 1515 1515 1514 1514 1514 1514 1514 1514 1514 1514 1514 1514 1514 1514 1513
1499 1500 1501 1501 1502 1502 1502 1502 1501 1500 1500 1500 1499 1500 1500 1500 1501 1502 1502 1503 1504 1504 1505 1506 1507 1508 1508 1509 1510 1510 1511 1511 1512 1512 1512 1512 1512 1512 1512 1512 1512 1512 1512 1512 1512 1512 1512 1511 1511
1499 1500 1500 1501 1500 1501 1500 1500 1500 1497 1498 1498 1498 1497 1498 1498 1498 1499 1499 1500 1501 1502 1503 1503 1504 1505 1506 1507 1507 1508 1508 1509 1509 1509 1509 1510 1510 1510 1510 1510 1510 1510 1510 1510 1510 1510 1509 1509 1509
1500 1499 1498 1498 1499 1499 1500 1496 1495 1495 1496 1496 1496 1495 1495 1495 1496 1496 1496 1497 1498 1499 1500 1501 1501 1502 1503 1504 1505 1505 1506 1506 1506 1506 1507 1507 1507 1507 1507 1507 1507 1507 1507 1507 1507 1507 1507 1507 1506
1498 1495 1493 1494 1497 1497 1499 1489 1491 1493 1494 1493 1493 1493 1492 1492 1493 1493 1493 1494 1495 1496 1497 1498 1498 1499 1500 1501 1502 1502 1503 1503 1503 1504 1504 1504 1504 1505 1505 1505 1504 1504 1505 1505 1505 1505 1504 1504 1504
1493 1490 1488 1491 1495 1495 1494 1487 1489 1491 1491 1490 1489 1489 1489 1489 1489 1489 1490 1490 1491 1492 1493 1494 1495 1496 1497 1498 1499 1499 1500 1500 1501 1501 1501 1501 1501 1501 1502 1502 1501 1501 1502 1502 1502 1502 1502 1501 1501
1486 1485 1486 1487 1491 1493 1491 1487 1487 1489 1488 1486 1486 1485 1485 1485 1485 1486 1486 1487 1488 1488 1489 1490 1491 1492 1493 1494 1495 1496 1496 1497 1497 1497 1498 1498 1498 1498 1498 1498 1498 1498 1498 1498 1498 1499 1498 1498 1498
1486 1486 1485 1487 1492 1492 1487 1484 1482 1483 1483 1482 1482 1482 1481 1481 1482 1482 1482 1483 1484 1485 1485 1486 1487 1488 1489 1490 1491 1492 1493 1493 1494 1494 1494 1494 1495 1495 1495 1495 1495 1495 1495 1495 1495 1495 1495 1495 1495
1488 1488 1485 1488 1492 1490 1485 1481 1478 1478 1478 1478 1478 1477 1477 1477 1478 1478 1478 1479 1480 1481 1481 1482 1483 1484 1485 1486 1487 1488 1489 1490 1490 1490 1490 1491 1491 1491 1492 1492 1491 1492 1491 1491 1491 1492 1491 1491 1492
1487 1486 1484 1486 1490 1489 1487 1473 1471 1471 1474 1474 1474 1474 1473 1473 1473 1474 1474 1475 1476 1477 1478 1478 1479 1480 1481 1483 1484 1484 1485 1485 1486 1486 1487 1487 1487 1487 1488 1488 1488 1488 1488 1488 1488 1488 1488 1488 1488
1483 1485 1487 1489 1487 1481 1485 1473 1462 1465 1468 1469 1470 1470 1470 1470 1470 1471 1471 1472 1472 1473 1474 1475 1476 1477 1478 1479 1479 1480 1481 1481 1482 1482 1483 1483 1483 1484 1484 1484 1484 1484 1484 1484 1484 1484 1484 1484 1484
1484 1488 1489 1488 1487 1485 1482 1481 1459 1463 1463 1462 1464 1466 1466 1467 1467 1468 1468 1468 1469 1470 1470 1471 1472 1473 1474 1475 1476 1477 1477 1478 1478 1479 1479 1479 1479 1479 1480 1480 1480 1480 1480 1480 1480 1480 1480 1480 1480
1488 1489 1489 1488 1486 1482 1474 1474 1456 1455 1456 1457 1460 1463 1464 1464 1464 1465 1465 1466 1466 1467 1467 1468 1468 1469 1470 1471 1472 1473 1473 1473 1474 1475 1475 1475 1475 1475 1475 1476 1476 1476 1476 1476 1476 1476 1476 1476 1477
1486 1484 1482 1480 1478 1468 1475 1472 1456 1451 1455 1457 1459 1461 1461 1462 1462 1462 1463 1463 1463 1463 1463 1464 1465 1465 1466 1467 1468 1469 1469 1470 1470 1470 1471 1471 1471 1471 1471 1471 1472 1472 1472 1472 1472 1472 1472 1472 1472
1480 1478 1476 1471 1464 1460 1475 1465 1451 1454 1456 1458 1459 1459 1460 1460 1460 1460 1460 1460 1460 1460 1460 1461 1461 1462 1463 1463 1464 1465 1466 1466 1466 1467 1467 1468 1467 1467 1467 1468 1468 1468 1468 1468 1468 1468 1468 1468 1468
1479 1478 1478 1478 1478 1472 1457 1455 1452 1453 1454 1455 1456 1457 1457 1457 1457 1457 1457 1458 1457 1457 1457 1457 1458 1459 1459 1460 1461 1461 1462 1462 1462 1463 1464 1464 1464 1463 1464 1464 1464 1463 1463 1464 1464 1463 1464 1463 1463
1478 1478 1480 1476 1470 1459 1451 1451 1444 1447 1449 1451 1453 1454 1455 1455 1455 1455 1455 1455 1454 1454 1454 1454 1455 1455 1456 1457 1457 1458 1458 1458 1458 1459 1459 1459 1459 1459 1459 1459 1459 1459 1459 1459 1459 1459 1459 1459 1459
1478 1479 1475 1472 1469 1459 1450 1442 1442 1445 1447 1450 1451 1452 1453 1453 1452 1452 1452 1452 1452 1451 1451 1451 1451 1452 1452 1453 1453 1454 1454 1454 1454 1454 1455 1455 1455 1455 1455 1455 1455 1455 1455 1454 1454 1454 1454 1454 1454
1471 1469 1471 1468 1468 1466 1455 1445 1444 1446 1448 1449 1450 1451 1451 1451 1450 1450 1449 1449 1449 1448 1448 1448 1448 1448 1448 1449 1449 1449 1450 1450 1450 1450 1450 1450 1450 1450 1450 1450 1450 1450 1450 1450 1450 1450 1450 1450 1450